Bar Harbor, ME

3:37 AM EST on December 11, 2019 (GMT -0500)
Hancock County-Bar Harbor

Weather History for KBHB - October, 2019

Change the Weather History Date:

Tuesday, October 8, 2019

  Actual Average Record
Temperature  
Mean Temperature 56 °F -  
Max Temperature 63 °F 61 °F 78 °F (1963)
Min Temperature 48 °F 44 °F 28 °F (1999)
Degree Days  
Heating Degree Days 10    
Growing Degree Days 6 (Base 50)    
Moisture  
Dew Point 51 °F    
Average Humidity 86    
Maximum Humidity 100    
Minimum Humidity 52    
Precipitation  
Precipitation 0.11 in - - ()
Sea Level Pressure  
Sea Level Pressure 30.23 in    
Wind  
Wind Speed 4 mph (WNW)    
Max Wind Speed 8 mph    
Max Gust Speed -    
Visibility 10 miles    
Events Rain    
Averages and records for this station are not official NWS values.
T = Trace of Precipitation, MM = Missing Value Source: NWS Daily Summary

Daily Weather History Graph

Daily Weather History Graph

Search for Another Location

Airport or City:

Astronomy

Oct. 08, 2019 Rise Set
Actual Time 6:39 AM EDT 6:01 PM EDT
Civil Twilight 6:10 AM EDT 6:30 PM EDT
Nautical Twilight 5:36 AM EDT 7:04 PM EDT
Astronomical Twilight 5:02 AM EDT 7:38 PM EDT
Moon 4:12 PM EDT (10/8) 1:09 AM EDT (10/8)
Length of Visible Light 12h 20m
Length of Day
11h 22m
Waxing Gibbous, 77% of the Moon is Illuminated
Oct 8
Waxing Gibbous
Oct 13
Full
Oct 21
Last Quarter
Oct 27
New
Nov 4
First Quarter

Hourly Weather History & Observations

Time (EDT) Temp. Dew Point Humidity Pressure Visibility Wind Dir Wind Speed Gust Speed Precip Events Conditions
12:12 AM 53.6 °F 53.6 °F 100% 30.14 in 10.0 mi WNW 3.5 mph - 0.01 in Rain Light Rain
12:24 AM 53.6 °F 53.6 °F 100% 30.14 in 10.0 mi West 4.6 mph - 0.02 in Rain Light Rain
12:56 AM 54.0 °F 53.1 °F 97% 30.16 in 10.0 mi SW 3.5 mph - 0.03 in Rain Light Rain
1:08 AM 53.6 °F 53.6 °F 100% 30.16 in 10.0 mi SW 4.6 mph - 0.01 in Rain Light Rain
1:44 AM 53.6 °F 53.6 °F 100% 30.16 in 10.0 mi Calm Calm - 0.02 in Rain Light Rain
1:56 AM 54.0 °F 54.0 °F 100% 30.16 in 10.0 mi Calm Calm - 0.02 in Rain Light Rain
2:56 AM 55.0 °F 54.0 °F 96% 30.17 in 10.0 mi WSW 3.5 mph - 0.01 in Rain Light Rain
3:56 AM 55.0 °F 54.0 °F 96% 30.16 in 10.0 mi Calm Calm - 0.03 in Rain Light Rain
4:56 AM 55.0 °F 54.0 °F 96% 30.17 in 10.0 mi SSW 5.8 mph - 0.02 in Rain Light Rain
5:22 AM 53.6 °F 53.6 °F 100% 30.17 in 10.0 mi SW 4.6 mph - 0.00 in Rain Light Rain
5:56 AM 54.0 °F 53.1 °F 97% 30.18 in 10.0 mi SW 4.6 mph - 0.00 in   Scattered Clouds
6:56 AM 54.0 °F 53.1 °F 97% 30.21 in 10.0 mi Calm Calm - N/A   Clear
7:56 AM 54.0 °F 53.1 °F 97% 30.23 in 10.0 mi SW 3.5 mph - N/A   Clear
8:56 AM 55.9 °F 55.0 °F 97% 30.24 in 10.0 mi SW 3.5 mph - N/A   Clear
9:17 AM 57.2 °F 55.4 °F 94% 30.24 in 10.0 mi Calm Calm - N/A   Partly Cloudy
9:35 AM 57.2 °F 55.4 °F 94% 30.24 in 10.0 mi Variable 3.5 mph - N/A   Mostly Cloudy
9:53 AM 57.2 °F 55.4 °F 94% 30.24 in 10.0 mi WNW 6.9 mph - N/A   Scattered Clouds
9:56 AM 57.9 °F 55.0 °F 90% 30.25 in 10.0 mi WNW 3.5 mph - N/A   Scattered Clouds
10:56 AM 60.1 °F 54.0 °F 80% 30.25 in 10.0 mi NNW 5.8 mph - N/A   Partly Cloudy
11:56 AM 61.0 °F 52.0 °F 72% 30.26 in 9.0 mi NW 4.6 mph - N/A   Clear
12:56 PM 62.1 °F 48.0 °F 60% 30.25 in 10.0 mi Variable 5.8 mph - N/A   Scattered Clouds
1:56 PM 62.1 °F 46.9 °F 58% 30.24 in 10.0 mi NNW 8.1 mph - N/A   Scattered Clouds
2:56 PM 63.0 °F 45.0 °F 52% 30.25 in 10.0 mi NNW 6.9 mph - N/A   Partly Cloudy
3:56 PM 62.1 °F 45.0 °F 53% 30.25 in 10.0 mi NNW 3.5 mph - N/A   Clear
4:56 PM 61.0 °F 48.0 °F 62% 30.27 in 10.0 mi NW 3.5 mph - N/A   Clear
5:56 PM 57.0 °F 46.9 °F 69% 30.28 in 10.0 mi NNW 3.5 mph - N/A   Clear
6:56 PM 53.1 °F 46.9 °F 80% 30.30 in 10.0 mi NNW 3.5 mph - N/A   Clear
7:56 PM 51.1 °F 46.9 °F 86% 30.31 in 10.0 mi North 3.5 mph - N/A   Clear
8:56 PM 51.1 °F 45.0 °F 80% 30.32 in 10.0 mi North 3.5 mph - N/A   Clear
9:56 PM 50.0 °F 46.0 °F 86% 30.33 in 10.0 mi North 4.6 mph - N/A   Clear
10:56 PM 48.9 °F 46.0 °F 90% 30.34 in 10.0 mi North 5.8 mph - N/A   Clear
11:56 PM 48.0 °F 45.0 °F 89% 30.37 in 10.0 mi North 5.8 mph - N/A   Clear